timestamp,wind_dir_avg,wind_spd_avg,wind_spd_max_dir,wind_spd_gust,battery_voltage,lat,long
2024-03-01 00:04:00+00:00,215.0,11.81,213.0,13.58,12.25,47.59359,-54.27349
2024-03-01 00:14:00+00:00,213.0,11.54,216.0,15.21,12.17,47.59359,-54.27349
2024-03-01 00:24:00+00:00,213.0,11.64,216.0,13.95,12.17,47.59359,-54.27349
2024-03-01 00:34:00+00:00,213.0,11.21,214.0,12.7,12.17,47.59359,-54.27349
2024-03-01 00:44:00+00:00,218.0,11.29,213.0,13.37,12.17,47.59359,-54.27349
2024-03-01 00:54:00+00:00,219.0,12.41,219.0,13.66,12.17,47.59359,-54.27349
2024-03-01 01:04:00+00:00,221.0,12.22,217.0,14.54,12.17,47.59359,-54.27349
2024-03-01 01:14:00+00:00,224.0,11.42,227.0,13.2,12.17,47.59359,-54.27349
2024-03-01 01:24:00+00:00,220.0,12.25,221.0,14.18,12.17,47.59359,-54.27349
2024-03-01 01:34:00+00:00,219.0,12.82,216.0,14.29,12.17,47.59359,-54.27349
2024-03-01 01:44:00+00:00,222.0,12.18,224.0,14.23,12.17,47.59359,-54.27349
2024-03-01 01:54:00+00:00,225.0,11.72,227.0,13.16,12.17,47.59359,-54.27349
2024-03-01 02:04:00+00:00,227.0,9.67,232.0,11.67,12.17,47.59359,-54.27349
2024-03-01 02:14:00+00:00,226.0,8.51,228.0,10.17,12.17,47.59359,-54.27349
2024-03-01 02:24:00+00:00,229.0,8.37,237.0,10.2,12.17,47.59359,-54.27349
2024-03-01 02:34:00+00:00,231.0,10.87,231.0,11.8,12.17,47.59359,-54.27349
2024-03-01 02:44:00+00:00,243.0,10.43,247.0,11.27,12.17,47.59359,-54.27349
2024-03-01 02:54:00+00:00,244.0,7.7,249.0,9.4,12.17,47.59359,-54.27349
2024-03-01 03:04:00+00:00,255.0,9.16,251.0,11.19,12.17,47.59359,-54.27349
2024-03-01 03:14:00+00:00,251.0,9.32,253.0,11.45,12.17,47.59359,-54.27349
2024-03-01 03:24:00+00:00,255.0,9.19,254.0,11.55,12.17,47.59359,-54.27349
2024-03-01 03:34:00+00:00,254.0,11.17,261.0,14.47,12.17,47.59359,-54.27349
2024-03-01 03:44:00+00:00,254.0,11.18,250.0,12.31,12.17,47.59359,-54.27349
2024-03-01 03:54:00+00:00,260.0,10.5,255.0,12.03,12.17,47.59359,-54.27349
2024-03-01 04:04:00+00:00,258.0,10.43,255.0,11.23,12.17,47.59359,-54.27349
2024-03-01 04:14:00+00:00,254.0,11.24,260.0,12.41,12.09,47.59359,-54.27349
2024-03-01 04:24:00+00:00,258.0,10.58,256.0,11.32,12.09,47.59359,-54.27349
2024-03-01 04:34:00+00:00,251.0,11.12,250.0,12.31,12.09,47.59359,-54.27349
2024-03-01 04:44:00+00:00,248.0,11.06,247.0,11.84,12.09,47.59359,-54.27349
2024-03-01 04:54:00+00:00,246.0,11.24,248.0,12.67,12.09,47.59359,-54.27349
2024-03-01 05:04:00+00:00,259.0,11.96,265.0,14.8,12.09,47.59359,-54.27349
2024-03-01 05:14:00+00:00,259.0,11.23,263.0,12.7,12.09,47.59359,-54.27349
2024-03-01 05:24:00+00:00,268.0,11.82,266.0,14.03,12.09,47.59359,-54.27349
2024-03-01 05:34:00+00:00,260.0,11.64,260.0,14.91,12.09,47.59359,-54.27349
2024-03-01 05:44:00+00:00,264.0,11.68,261.0,13.82,12.09,47.59359,-54.27349
2024-03-01 05:54:00+00:00,262.0,11.85,268.0,14.64,12.09,47.59359,-54.27349
2024-03-01 06:04:00+00:00,260.0,11.65,254.0,12.77,12.09,47.59359,-54.27349
2024-03-01 06:14:00+00:00,259.0,11.72,269.0,13.62,12.01,47.59359,-54.27349
2024-03-01 06:24:00+00:00,262.0,12.21,268.0,19.51,12.01,47.59359,-54.27349
2024-03-01 06:34:00+00:00,272.0,11.74,274.0,15.63,12.01,47.59359,-54.27349
2024-03-01 06:44:00+00:00,263.0,11.85,269.0,15.1,12.01,47.59359,-54.27349
2024-03-01 06:54:00+00:00,265.0,11.84,264.0,14.06,12.01,47.59359,-54.27349
2024-03-01 07:04:00+00:00,260.0,11.84,257.0,14.43,12.01,47.59359,-54.27349
2024-03-01 07:14:00+00:00,262.0,12.02,258.0,14.31,12.01,47.59359,-54.27349
2024-03-01 07:24:00+00:00,261.0,12.26,256.0,16.97,12.01,47.59359,-54.27349
2024-03-01 07:34:00+00:00,252.0,11.02,249.0,15.1,12.01,47.59359,-54.27349
2024-03-01 07:44:00+00:00,256.0,11.23,258.0,13.62,12.01,47.59359,-54.27349
2024-03-01 07:54:00+00:00,265.0,12.9,265.0,14.44,12.01,47.59359,-54.27349
2024-03-01 08:04:00+00:00,260.0,13.18,260.0,14.6,12.01,47.59359,-54.27349
2024-03-01 08:14:00+00:00,265.0,13.34,270.0,14.46,12.01,47.59359,-54.27349
2024-03-01 08:24:00+00:00,271.0,12.46,271.0,14.48,12.01,47.59359,-54.27349
2024-03-01 08:34:00+00:00,256.0,13.06,256.0,14.61,12.01,47.59359,-54.27349
2024-03-01 08:44:00+00:00,257.0,12.03,245.0,16.25,12.01,47.59359,-54.27349
2024-03-01 08:54:00+00:00,263.0,12.87,261.0,14.63,12.01,47.59359,-54.27349
2024-03-01 09:04:00+00:00,259.0,11.6,266.0,14.18,12.01,47.59359,-54.27349
2024-03-01 09:14:00+00:00,265.0,11.42,264.0,14.63,11.93,47.59359,-54.27349
2024-03-01 09:24:00+00:00,260.0,11.62,266.0,14.5,11.93,47.59359,-54.27349
2024-03-01 09:34:00+00:00,269.0,12.19,280.0,14.23,11.93,47.59359,-54.27349
2024-03-01 09:44:00+00:00,271.0,12.03,272.0,13.73,11.93,47.59359,-54.27349
2024-03-01 09:54:00+00:00,265.0,12.32,261.0,14.16,11.93,47.59359,-54.27349
2024-03-01 10:04:00+00:00,265.0,12.79,265.0,14.0,11.93,47.59359,-54.27349
2024-03-01 10:14:00+00:00,264.0,11.47,267.0,14.14,11.93,47.59359,-54.27349
2024-03-01 10:24:00+00:00,259.0,10.98,260.0,13.26,11.93,47.59359,-54.27349
2024-03-01 10:34:00+00:00,264.0,12.0,267.0,13.82,11.93,47.59359,-54.27349
2024-03-01 10:44:00+00:00,260.0,11.76,261.0,13.61,11.93,47.59359,-54.27349
2024-03-01 10:54:00+00:00,252.0,8.39,248.0,9.59,11.93,47.59359,-54.27349
2024-03-01 11:04:00+00:00,258.0,8.99,255.0,10.74,11.93,47.59359,-54.27349
2024-03-01 11:14:00+00:00,241.0,9.94,249.0,12.08,12.01,47.59359,-54.27349
2024-03-01 11:24:00+00:00,248.0,9.14,252.0,11.65,12.01,47.59359,-54.27349
2024-03-01 11:34:00+00:00,246.0,8.21,247.0,11.22,12.01,47.59359,-54.27349
2024-03-01 11:44:00+00:00,288.0,7.47,287.0,8.5,12.01,47.59359,-54.27349
2024-03-01 11:54:00+00:00,280.0,8.81,278.0,10.2,12.01,47.59359,-54.27349
2024-03-01 12:04:00+00:00,260.0,7.88,271.0,8.92,12.01,47.59359,-54.27349
2024-03-01 12:14:00+00:00,270.0,6.75,274.0,8.91,13.05,47.59359,-54.27349
2024-03-01 12:24:00+00:00,314.0,10.58,330.0,13.1,13.05,47.59359,-54.27349
2024-03-01 12:34:00+00:00,300.0,9.6,281.0,16.0,13.05,47.59359,-54.27349
2024-03-01 12:44:00+00:00,293.0,7.81,289.0,9.8,13.05,47.59359,-54.27349
2024-03-01 12:54:00+00:00,278.0,8.62,283.0,11.49,13.05,47.59359,-54.27349
2024-03-01 13:04:00+00:00,275.0,8.26,274.0,10.72,13.05,47.59359,-54.27349
2024-03-01 13:14:00+00:00,283.0,9.76,279.0,12.44,13.68,47.59359,-54.27349
2024-03-01 13:24:00+00:00,273.0,11.27,273.0,16.26,13.68,47.59359,-54.27349
2024-03-01 13:34:00+00:00,267.0,7.7,267.0,12.58,13.68,47.59359,-54.27349
2024-03-01 13:44:00+00:00,273.0,10.38,277.0,15.38,13.68,47.59359,-54.27349
2024-03-01 13:54:00+00:00,263.0,7.69,267.0,9.19,13.68,47.59359,-54.27349
2024-03-01 14:04:00+00:00,290.0,8.89,288.0,11.11,13.68,47.59359,-54.27349
2024-03-01 14:14:01+00:00,282.0,8.08,276.0,11.44,13.37,47.59359,-54.27349
2024-03-01 14:24:01+00:00,275.0,7.88,279.0,10.24,13.37,47.59359,-54.27349
2024-03-01 14:34:01+00:00,258.0,9.08,260.0,10.59,13.37,47.59359,-54.27349
2024-03-01 14:44:01+00:00,253.0,8.03,263.0,10.19,13.37,47.59359,-54.27349
2024-03-01 14:54:01+00:00,263.0,8.95,248.0,12.2,13.37,47.59359,-54.27349
2024-03-01 15:04:01+00:00,281.0,15.97,285.0,19.11,13.37,47.59359,-54.27349
2024-03-01 15:14:00+00:00,265.0,14.52,265.0,17.57,14.48,47.59359,-54.27349
2024-03-01 15:24:00+00:00,263.0,13.78,269.0,17.22,14.48,47.59359,-54.27349
2024-03-01 15:34:00+00:00,268.0,15.53,265.0,17.52,14.48,47.59359,-54.27349
2024-03-01 15:44:00+00:00,273.0,8.92,276.0,11.76,14.48,47.59359,-54.27349
2024-03-01 15:54:00+00:00,271.0,7.24,271.0,8.96,14.48,47.59359,-54.27349
2024-03-01 16:04:00+00:00,251.0,8.15,249.0,9.85,14.48,47.59359,-54.27349
2024-03-01 16:14:00+00:00,255.0,8.23,266.0,9.8,13.84,47.59359,-54.27349
2024-03-01 16:24:00+00:00,266.0,11.86,274.0,17.26,13.84,47.59359,-54.27349
2024-03-01 16:34:00+00:00,269.0,13.86,273.0,17.17,13.84,47.59359,-54.27349
2024-03-01 16:44:00+00:00,276.0,9.63,268.0,11.57,13.84,47.59359,-54.27349
2024-03-01 16:54:00+00:00,268.0,12.58,274.0,17.66,13.84,47.59359,-54.27349
2024-03-01 17:04:00+00:00,255.0,15.33,253.0,18.37,13.84,47.59359,-54.27349
2024-03-01 17:14:00+00:00,262.0,11.71,267.0,17.29,14.0,47.59359,-54.27349
2024-03-01 17:24:00+00:00,253.0,14.81,261.0,22.53,14.0,47.59359,-54.27349
2024-03-01 17:34:00+00:00,253.0,13.57,262.0,17.07,14.0,47.59359,-54.27349
2024-03-01 17:44:00+00:00,259.0,12.97,254.0,17.86,14.0,47.59359,-54.27349
2024-03-01 17:54:00+00:00,261.0,14.02,262.0,17.77,14.0,47.59359,-54.27349
2024-03-01 18:04:00+00:00,259.0,11.61,263.0,18.4,14.0,47.59359,-54.27349
2024-03-01 18:14:00+00:00,263.0,13.54,257.0,17.41,14.4,47.59359,-54.27349
2024-03-01 18:24:00+00:00,261.0,8.83,265.0,12.21,14.4,47.59359,-54.27349
2024-03-01 18:34:00+00:00,238.0,8.93,244.0,12.37,14.4,47.59359,-54.27349
2024-03-01 18:44:00+00:00,244.0,12.81,249.0,18.59,14.4,47.59359,-54.27349
2024-03-01 18:54:00+00:00,255.0,11.11,258.0,15.17,14.4,47.59359,-54.27349
2024-03-01 19:04:00+00:00,255.0,14.57,253.0,18.04,14.4,47.59359,-54.27349
2024-03-01 19:14:00+00:00,249.0,12.78,254.0,17.16,13.37,47.59359,-54.27349
2024-03-01 19:24:00+00:00,262.0,11.96,264.0,15.16,13.37,47.59359,-54.27349
2024-03-01 19:34:00+00:00,264.0,15.53,265.0,17.8,13.37,47.59359,-54.27349
2024-03-01 19:44:00+00:00,257.0,11.3,262.0,14.73,13.37,47.59359,-54.27349
2024-03-01 19:54:00+00:00,267.0,13.75,273.0,16.2,13.37,47.59359,-54.27349
2024-03-01 20:04:00+00:00,251.0,11.62,257.0,17.89,13.37,47.59359,-54.27349
2024-03-01 20:14:00+00:00,256.0,12.45,260.0,17.16,13.29,47.59359,-54.27349
2024-03-01 20:24:00+00:00,271.0,10.88,272.0,16.56,13.29,47.59359,-54.27349
2024-03-01 20:34:00+00:00,263.0,10.85,256.0,14.77,13.29,47.59359,-54.27349
2024-03-01 20:44:00+00:00,267.0,13.47,270.0,18.03,13.29,47.59359,-54.27349
2024-03-01 20:54:00+00:00,260.0,13.61,262.0,17.81,13.29,47.59359,-54.27349
2024-03-01 21:04:00+00:00,255.0,8.32,262.0,11.75,13.29,47.59359,-54.27349
2024-03-01 21:14:00+00:00,265.0,7.64,271.0,11.55,12.97,47.59359,-54.27349
2024-03-01 21:24:00+00:00,251.0,11.2,254.0,17.3,12.97,47.59359,-54.27349
2024-03-01 21:34:00+00:00,260.0,10.66,271.0,15.7,12.97,47.59359,-54.27349
2024-03-01 21:44:00+00:00,263.0,9.67,265.0,16.89,12.97,47.59359,-54.27349
2024-03-01 21:54:00+00:00,255.0,13.17,260.0,17.96,12.97,47.59359,-54.27349
2024-03-01 22:04:00+00:00,259.0,7.8,249.0,9.53,12.97,47.59359,-54.27349
2024-03-01 22:14:00+00:00,245.0,9.62,266.0,13.39,12.33,47.59359,-54.27349
2024-03-01 22:24:00+00:00,245.0,8.74,239.0,9.88,12.33,47.59359,-54.27349
2024-03-01 22:34:00+00:00,244.0,8.28,251.0,11.92,12.33,47.59359,-54.27349
2024-03-01 22:44:00+00:00,244.0,8.09,249.0,12.3,12.33,47.59359,-54.27349
2024-03-01 22:54:00+00:00,258.0,10.46,264.0,14.04,12.33,47.59359,-54.27349
2024-03-01 23:04:00+00:00,261.0,11.89,267.0,16.54,12.33,47.59359,-54.27349
2024-03-01 23:14:00+00:00,262.0,13.95,263.0,17.78,12.17,47.59359,-54.27349
2024-03-01 23:24:00+00:00,254.0,14.88,250.0,18.9,12.17,47.59359,-54.27349
2024-03-01 23:34:00+00:00,256.0,11.73,259.0,16.74,12.17,47.59359,-54.27349
2024-03-01 23:44:00+00:00,254.0,12.04,260.0,16.77,12.17,47.59359,-54.27349
2024-03-01 23:54:00+00:00,241.0,9.1,245.0,12.83,12.17,47.59359,-54.27349
